Regional Weather Roundup
Issued by NWS State College, PA

Home | Current Version | Previous Version | Graphics & Text | Print | Product List | Glossary On
Versions: 1 2 3 4 5 6 7 8 9 10 11 12 13 14 15 16 17 18 19 20 21 22 23 24 25 26 27 28 29 30 31 32 33 34 35 36 37 38 39 40 41 42 43 44 45 46 47 48 49 50
000
ASUS41 KCTP 251603
RWRCTP

REGIONAL WEATHER ROUNDUP
NATIONAL WEATHER SERVICE STATE COLLEGE PA
1200 PM EDT SUN JUN 25 2017

Note: "fair" indicates few or no clouds below 12,000 feet with no
significant weather and/or obstructions to visibility.

* = STATION THAT DOES NOT REPORT PRECIPITATION /E.G. RAIN...SNOW...ETC/
    THUNDER OR FOG.

PAZ002>004-007>009-013>016-020>023-029>032-251700-
WESTERN PENNSYLVANIA

CITY           SKY/WX    TMP DP  RH WIND       PRES   REMARKS
ERIE           PTSUNNY   68  53  58 W10       30.01F
MEADVILLE      SUNNY     69  48  47 SW16G24   30.05F
FRANKLIN*      MOSUNNY   70  48  46 W12G18    30.07S
NEW CASTLE     PTSUNNY   70  49  47 W9G17     30.07F
BEAVER COUNTY  NOT AVBL
BUTLER*        MOSUNNY   72  52  49 W14       30.08F
PITTSBURGH INT MOSUNNY   72  49  44 SW15      30.08S
PITTSBURGH     MOSUNNY   72  47  40 W9G25     30.08S
INDIANA*       MOSUNNY   72  54  53 W12G24    30.10F
LATROBE        PTSUNNY   72  54  53 W9        30.09S
WASHINGTON CO* MOSUNNY   72  48  43 W10G22    30.13S
$$

PAZ004>006-010>012-017>019-024>028-033>037-041-042-045-046-049>053-251700-
CENTRAL PENNSYLVANIA

CITY           SKY/WX    TMP DP  RH WIND       PRES   REMARKS
BRADFORD       PTSUNNY   66  47  50 W9G18     30.05F
DUBOIS         MOSUNNY   69  49  48 W15G21    30.06F
CLEARFIELD     MOSUNNY   72  50  45 SW10G18   30.06F
JOHNSTOWN      CLOUDY    65  53  65 NW10      30.10S
ALTOONA        MOSUNNY   72  52  49 W12       30.07S
STATE COLLEGE  MOSUNNY   73  54  49 SW12      30.06S
WILLIAMSPORT   PTSUNNY   76  52  43 W12       30.00F
SELINSGROVE    LGT RAIN  72  58  61 NW10      30.02S
FT INDIANTOWN  SUNNY     78  57  48 W6        30.01F
CAPITAL CITY     N/A     81  56  42 SW8       30.01F
HARRISBURG     PTSUNNY   81  59  47 W10       30.00F
YORK           PTSUNNY   80  61  52 NW7       30.03S
$$

PAZ038>040-043-044-047-048-054-055-060>062-067>071-251700-
EASTERN PENNSYLVANIA

CITY           SKY/WX    TMP DP  RH WIND       PRES   REMARKS
SCRANTON       MOSUNNY   77  55  46 SW15G24   30.00F
MOUNT POCONO   NOT AVBL
ALLENTOWN      MOSUNNY   78  59  51 SW9       30.00S
QUAKERTOWN*    MOSUNNY   79  59  50 SW6       30.02S
READING        MOSUNNY   80  63  55 CALM      29.99F
LANCASTER      MOSUNNY   81  61  50 NW6       30.01F
COATESVILLE    MOSUNNY   77  61  57 VRB6      30.04S
POTTSTOWN      MOSUNNY   78  58  49 S8        30.02F
BLUE BELL      MOSUNNY   79  59  50 S5        30.01F
DOYLESTOWN     SUNNY     80  57  45 MISG      29.99F
WILLOW GROVE   NOT AVBL
NORTH PHILA    MOSUNNY   84  58  40 VRB3      30.01F
PHILADELPHIA   PTSUNNY   82  57  42 SW10      30.00F
$$




USA.gov is the U.S. government's official web portal to all federal, state and local government web resources and services.